Observations for Trim Patrick St
| Time | AQI | Temp °C | Hum % | Pres Pa | CO μg/m³ | H₂S μg/m³ | NO μg/m³ | NO₂ μg/m³ | O₃ μg/m³ | SO₂ μg/m³ | PM1 μg/m³ | PM2.5 μg/m³ | PM10 μg/m³ |
|---|---|---|---|---|---|---|---|---|---|---|---|---|---|
| Thursday 27 August 2026 | |||||||||||||
| 03:41 | 2 | 16.1 | 89 | 38,289 | 0.23 | 2.02 | 1.31 | 20.82 | 33.15 | 0 | 20.86 | 26.44 | 29.09 |
| 03:40 | 2 | 16.1 | 89 | 38,289 | 0.22 | 2.05 | 1.22 | 19.75 | 28.03 | 0 | 20 | 25.79 | 28.36 |
| 03:39 | 2 | 16.1 | 88 | 38,289 | 0.23 | 2.68 | 1.47 | 23.35 | 38.96 | 0 | 20 | 26.51 | 29.16 |
| 03:38 | 2 | 16 | 87 | 38,290 | 0.22 | 3.2 | 1.64 | 31.98 | 40.37 | 0 | 19.14 | 26 | 28.59 |
| 03:37 | 2 | 16.1 | 89 | 38,290 | 0.22 | 2.75 | 1.54 | 25.93 | 39.25 | 0 | 20.86 | 27.16 | 29.88 |
| 03:36 | 2 | 16 | 89 | 38,291 | 0.23 | 1.35 | 1.71 | 23.87 | 30 | 0 | 20 | 25.76 | 28.34 |
| 03:35 | 2 | 16 | 89 | 38,292 | 0.23 | 1.45 | 1.57 | 15.76 | 31.9 | 0 | 20 | 25.73 | 28.31 |
| 03:34 | 2 | 16 | 88 | 38,293 | 0.23 | 2.02 | 1.28 | 29.51 | 39.49 | 0 | 20.86 | 27.2 | 29.92 |
| 03:33 | 2 | 16 | 90 | 38,295 | 0.23 | 0.38 | 1.09 | 16.14 | 33.77 | 0 | 20 | 26.36 | 29 |
| 03:32 | 2 | 16 | 90 | 38,297 | 0.22 | 2.18 | 1.03 | 24.78 | 33.62 | 0 | 20.86 | 27.04 | 29.75 |
| 03:31 | 2 | 16 | 89 | 38,300 | 0.23 | 1.29 | 1.1 | 17.55 | 28.82 | 0 | 20 | 25.69 | 28.26 |
| 03:30 | 2 | 16 | 89 | 38,304 | 0.23 | 2.52 | 1.19 | 28.59 | 35.35 | 0 | 21.72 | 27.79 | 30.57 |
| 03:29 | 2 | 16 | 90 | 38,309 | 0.23 | 3.04 | 1.34 | 24.02 | 39.11 | 0 | 20 | 25.67 | 28.24 |
| 03:28 | 2 | 16 | 90 | 38,316 | 0.23 | 1.84 | 1.32 | 24.02 | 33.74 | 0 | 20 | 27.03 | 27.14 |
| 03:27 | 2 | 16 | 90 | 38,325 | 0.22 | 2.31 | 1.43 | 25.56 | 32.17 | 0 | 18.29 | 25.67 | 28.24 |
| 03:26 | 2 | 16 | 90 | 38,337 | 0.23 | 1.24 | 1.38 | 22.87 | 29.84 | 0 | 21.72 | 27.71 | 30.48 |
| 03:25 | 2 | 16 | 90 | 38,353 | 0.22 | 2.05 | 1.23 | 24.29 | 36.65 | 0 | 20.86 | 27.71 | 28.39 |
| 03:24 | 2 | 16 | 90 | 38,374 | 0.22 | 1.53 | 1.05 | 22.58 | 32.48 | 0 | 20 | 24.99 | 27.49 |
| 03:23 | 2 | 16 | 90 | 38,374 | 0.23 | 1.4 | 1.31 | 17.13 | 33.54 | 0 | 18.29 | 23.62 | 25.98 |
| 03:22 | 2 | 15.9 | 90 | 38,374 | 0.22 | 2.36 | 1.26 | 26.46 | 34.39 | 0 | 20 | 25.67 | 28.24 |